User: anonymous   Login
Location: Home
(42.5358°N, 72.7383°W)
Time: 16:32:31
(UTC-05:00)
Language:

CAS-4A - Orbit

View from above orbital plane
View from above orbital plane
View from above satellite
View from above satellite

Ground track
Ground track

The orbit data is extracted from the following two-line orbital elements,

1 42761U 17034D   22021.51071248  .00002753  00000-0  17573-3 0  9993
2 42761  43.0185  60.7711 0006993  86.3247  59.6675 15.10846626254123
Epoch (UTC): 21 January 2022 12:15:25
Eccentricity: 0.0006993
inclination: 43.0185°
perigee height: 529 km
apogee height: 538 km
right ascension of ascending node: 60.7711°
argument of perigee: 86.3247°
revolutions per day: 15.10846626
mean anomaly at epoch: 59.6675°
orbit number at epoch: 25412

The dashed part of the orbit path shows where the satellite is in the earth's shadow,  

DLR